Location: York
(31.8935°S, 116.7682°E)
Time: 07:49:05
(UTC+08:00)

N. Korean satellite - Pass Details

Date: 23 May 2021
Orbit: 450 x 500 km, 97.2° (Epoch: 13 June)

Event Time Altitude Azimuth Distance (km) Brightness Sun altitude
Rises 05:13:41 0° 358° (N) 2,495 10.3 -22.2°
Reaches altitude 10° 05:15:47 10° 350° (N) 1,636 9.2 -21.8°
Enters shadow 05:16:17 13° 347° (NNW) 1,442 8.9 -21.7°
